Hourly Data Report for November 24, 2019

MIRAMICHI RCS
NEW BRUNSWICK
Current Station Operator: ECCC - MSC

47°00'34.000" N
65°27'54.000" W
33.00 m
8100989
71744
ACQ

Download Data

Hourly Data (November 2019)
Hourly Data Report for November 24, 2019
TIME
LST
Temp Definition
°C
Dew Point Definition
°C
Rel Hum Definition
%
Precip. Amount Definition
mm

Wind Dir Definition
10's deg

Wind Spd Definition
km/h
Visibility Definition
km
Stn Press Definition
kPa
Hmdx Definition


Wind Chill Definition


Weather Definition


00:00 -4.3 -8.2 74 0.0 26 15   100.04   -10 LegendNANA
01:00 -4.7 -8.1 77 0.0 24 13   100.07   -10 LegendNANA
02:00 -5.1 -8.2 79 0.0 25 14   100.09   -10 LegendNANA
03:00 -5.3 -8.1 80 0.0 24 13   100.10   -10 LegendNANA
04:00 -6.0 -8.1 85 0.0 26 5   100.09   -8 LegendNANA
05:00 -6.9 -8.4 89 0.0 22 4   100.12   -9 LegendNANA
06:00 -8.6 -10.0 89 0.0 23 2   100.15   -10 LegendNANA
07:00 -8.5 -9.5 92 0.0 0 1   100.23   -9 LegendNANA
08:00 -9.0 -10.0 93 0.0 0 1   100.26   -10 LegendNANA
09:00 -7.7 -9.1 90 0.0   0   100.30     LegendNANA
10:00 -4.7 -7.5 80 0.0 17 6   100.25   -7 LegendNANA
11:00 -2.2 -6.2 74 0.0 13 1   100.17   -3 LegendNANA
12:00 -1.9 -6.0 74 0.0   0   100.21     LegendNANA
13:00 -1.1 -5.3 73 0.0 5 3   100.15   -2 LegendNANA
14:00 -0.1 -5.3 68 0.0 8 1   100.13   0 LegendNANA
15:00 -0.3 -5.3 69 0.0 19 4   100.15   -2 LegendNANA
16:00 -0.5 -4.7 73 0.0 10 2   100.07   -1 LegendNANA
17:00 -0.9 -4.6 76 0.0 8 8   99.99   -4 LegendNANA
18:00 -0.9 -4.7 75 0.0 6 10   99.88   -4 LegendNANA
19:00 -0.7 -4.2 77 0.0 6 10   99.83   -4 LegendNANA
20:00 -0.2 -3.0 81 0.0 5 12   99.73   -4 LegendNANA
21:00 0.4 -2.1 83 0.0 7 18   99.67     LegendNANA
22:00 0.5 -1.8 85 0.0 6 21   99.51     LegendNANA
23:00 1.1 -1.1 85 0.0 5 20   99.35     LegendNANA

Notes on Data Quality.

Legend

  • E = Estimated
  • M = Missing
  • NA = Not Available*
  • [empty] = Indicates an unobserved value
Date modified: